Вернуться в каталог

STARLINK-37903

АктивенСвязьVLEO
NORAD 69945·PAYLOAD·🇺🇸 United States

Запущен Jul 9, 2026 с Cape Canaveral Space Force Station

Loading…

Ближайшие Пролёты (ближайшие 24 часа)

TLE

СвежийSource: CelesTrak SupGP

Эпоха: Sep 14, 2026, 21:33 UTC

1 69945C 26157C   26257.89840278 -.00007801  00000+0 -23054-3 0  2573
2 69945  53.1583   0.1558 0001264  81.3967 135.7940 15.34387346    10

Отслеживайте STARLINK-37903 в реальном времени с AllMySat

Download on the App Store